OPS 7218 (TRANSIT 16) 1 02807U 67048A 10210.49264526 +.00000074 +00000-0 +10000-3 0 04455 2 02807 089.6679 189.9481 0021468 137.5408 222.7403 13.49742987125566 OPS 4947 (TRANSIT 17) 1 02965U 67092A 10210.73386343 +.00000078 +00000-0 +10000-3 0 07118 2 02965 089.2410 091.9476 0047915 330.6210 029.2235 13.52453746112204 OPS 7034 (TRANSIT 18) 1 03133U 68012A 10210.64196730 .00000074 00000-0 10000-3 0 6203 2 03133 089.9730 285.6866 0073300 224.1569 135.3721 13.50558376 87551 NNSS 19 (TRANSIT 19) 1 04507U 70067A 10210.81270389 .00000009 00000-0 48723-6 0 2956 2 04507 089.8552 305.9098 0172656 345.8818 013.7542 13.50169128964684 NNSS 20 (TRANSIT 20) 1 06909U 73081A 10210.82759033 .00000035 00000-0 27698-4 0 7390 2 06909 089.8605 352.1614 0157882 329.8406 029.3745 13.69795408 34860 TRANSAT 1 10457U 77106A 10210.58771082 +.00000072 +00000-0 +10000-3 0 00613 2 10457 089.6928 235.9351 0024928 172.0933 188.0608 13.48282791610866 NOVA 1 1 12458U 81044A 10210.77830016 +.00000051 +00000-0 +10000-3 0 00871 2 12458 090.0722 119.0810 0016127 097.4537 262.8461 13.22719939409721 NOVA 3 1 15362U 84110A 10210.59221590 +.00000050 +00000-0 +10000-3 0 01506 2 15362 089.9857 050.1867 0031003 324.8337 035.0766 13.22499019244950 OSCAR 30 1 15935U 85066A 10210.92827358 +.00000050 +00000-0 +71293-4 0 06488 2 15935 090.0616 025.1638 0171598 076.3239 285.6942 13.35285404215114 OSCAR 24 1 15936U 85066B 10210.91140527 +.00000065 +00000-0 +10000-3 0 00572 2 15936 090.0508 021.8341 0172096 079.5741 282.4746 13.35180976217236 POLAR BEAR 1 17070U 86088A 10210.65480999 +.00000046 +00000-0 +36107-4 0 01408 2 17070 089.5285 089.7632 0040171 119.6436 240.8738 13.74363971188601 OSCAR 27 1 18361U 87080A 10210.60704156 +.00000069 +00000-0 +10000-3 0 06698 2 18361 090.3456 247.2339 0108075 094.5410 266.8094 13.44098536121352 OSCAR 29 1 18362U 87080B 10210.69691010 +.00000069 +00000-0 +10000-3 0 09291 2 18362 090.3461 247.3748 0109406 105.6731 255.6518 13.43725372121129 OSCAR 23 1 19070U 88033A 10210.89817941 .00000055 00000-0 10000-3 0 8476 2 19070 090.2596 195.1577 0188557 307.7769 050.6428 13.27126299 77919 OSCAR 32 1 19071U 88033B 10210.52479130 +.00000056 +00000-0 +10000-3 0 05233 2 19071 090.2601 195.2310 0186968 300.6116 057.6703 13.27332302078036 NOVA 2 1 19223U 88052A 10210.69412459 +.00000050 +00000-0 +10000-3 0 06990 2 19223 090.0133 091.4081 0031464 006.1840 353.9682 13.22431049067508 OSCAR 25 1 19419U 88074A 10210.85486735 +.00000068 +00000-0 +10000-3 0 09180 2 19419 089.9251 028.3132 0098734 054.9698 306.0663 13.41830912073502 OSCAR 31 1 19420U 88074B 10210.56769342 +.00000068 +00000-0 +10000-3 0 05937 2 19420 089.9254 028.2533 0096712 050.4629 310.5001 13.41880097073561